Retour au catalogue

COSMOS 2499 DEB

ActifPO
NORAD 56567·DEBRIS·🇷🇺 Russia

Lancé May 23, 2014 depuis Plesetsk Cosmodrome

Loading…

Prochains Passages (prochaines 24 heures)

TLE

FraisSource: Space-Track

Époque: Sep 14, 2026, 15:49 UTC

1 56567U 14028BA  26257.65942305  .00006366  00000-0  23874-1 0  9996
2 56567  82.6251 224.3862 0176279 144.4179 216.8833 12.86463348170480

Suivez COSMOS 2499 DEB en temps réel avec AllMySat

Download on the App Store